Probability
0 0 0 0 0 0 0 0 0 1 2 4 5 8 11 13 18 25 29 27 20 15 15 16 14 13 11 8 7 7 9 10 11 12 14 15 15 13 11 8 5 3 1 0
0 0 0 0 0 0 0 0 1 1 3 5 8 12 14 17 21 26 27 24 19 16 17 18 16 12 9 8 7 7 7 8 9 10 11 12 13 14 12 9 7 5 3 1
0 0 0 0 0 0 0 0 1 2 4 7 11 15 17 19 23 25 23 20 18 17 18 18 15 10 7 6 5 6 6 6 6 7 8 9 10 12 13 11 9 7 4 2
0 0 0 0 0 0 0 0 1 3 7 10 13 17 18 19 21 20 16 15 15 16 16 15 12 8 5 4 4 4 4 4 4 4 5 7 8 9 11 12 10 7 5 3
0 0 0 0 0 0 0 0 1 4 9 13 17 19 18 16 16 15 13 12 13 13 12 10 7 4 3 3 3 3 3 3 3 3 4 6 6 7 9 11 11 8 5 4
0 0 0 0 0 0 1 1 3 6 10 13 16 16 13 11 11 12 11 10 10 9 8 6 4 3 2 2 2 3 3 3 3 4 5 6 6 7 8 10 11 9 6 4
0 0 0 0 0 1 1 3 5 8 10 11 10 8 7 8 8 7 7 7 7 7 6 4 3 2 2 1 1 1 2 2 3 4 5 6 6 7 8 8 9 8 6 5
0 0 0 0 1 2 3 4 6 8 9 8 6 6 7 8 7 6 5 5 6 6 6 4 2 2 1 0 0 0 1 1 1 2 3 4 4 5 5 6 6 6 5 5
0 0 0 1 1 3 3 3 4 5 5 6 6 6 8 9 8 6 6 6 6 6 6 4 2 1 1 0 0 0 0 0 0 1 1 1 1 2 2 3 3 3 3 4
0 0 0 1 2 2 3 2 2 2 3 4 5 6 7 8 9 8 7 6 6 6 6 5 2 0 0 0 0 0 0 0 0 0 0 0 0 0 0 1 1 1 1 2
0 0 0 1 1 1 2 2 1 0 1 3 5 6 7 9 10 10 8 7 6 6 6 4 1 0 0 0 0 0 0 0 0 0 0 0 0 0 0 0 0 0 1 2
0 0 0 0 0 1 2 3 2 1 0 2 4 6 7 9 11 12 10 7 6 6 5 2 0 0 0 0 0 1 1 1 1 0 0 0 1 1 1 0 0 0 0 1
0 0 0 0 0 0 1 3 3 1 1 1 2 3 5 8 10 12 11 9 7 6 3 1 0 0 0 0 0 1 2 2 2 1 1 1 1 2 1 0 0 0 0 0
0 0 0 0 0 0 1 2 3 2 1 1 1 2 4 6 8 10 10 9 7 5 2 1 0 0 0 0 0 1 2 3 3 3 2 2 3 3 2 1 0 0 0 0
0 0 0 0 0 0 0 1 3 3 1 1 2 3 4 5 6 8 9 9 7 4 2 0 0 0 1 1 0 0 1 2 3 3 3 3 3 3 3 2 1 0 0 0
0 0 0 0 0 0 0 1 3 3 1 2 3 3 4 5 5 6 7 7 6 5 2 0 0 1 2 1 0 0 0 1 1 2 3 3 3 3 3 3 1 0 0 0
0 0 0 0 0 0 0 1 2 2 1 2 3 4 4 5 5 5 5 4 5 4 2 0 0 1 2 1 0 0 0 0 0 1 3 3 3 3 3 3 2 1 0 0
0 0 0 0 0 0 0 0 1 1 1 2 3 4 5 5 5 4 3 3 2 1 0 0 0 1 1 0 0 0 0 0 0 1 2 3 3 3 3 3 2 1 0 0
0 0 0 0 0 0 0 0 0 1 2 3 4 4 5 4 4 3 2 3 2 1 0 0 0 0 0 0 0 0 0 0 0 0 1 2 3 3 3 3 2 1 0 0
0 0 0 0 0 0 0 0 1 2 4 5 6 5 3 2 2 3 3 2 2 1 0 0 0 0 0 0 0 0 0 0 0 0 0 1 2 3 3 3 3 1 0 0
0 0 0 0 1 1 1 1 2 5 6 5 5 4 1 0 1 2 2 1 1 1 0 0 0 0 0 0 0 0 0 0 0 0 0 1 2 3 3 3 3 2 1 0
0 0 0 1 2 2 1 1 3 5 4 3 2 1 0 0 0 1 1 0 0 0 0 0 0 0 0 0 0 0 0 0 0 0 0 1 2 3 3 3 3 2 1 0
0 0 0 1 2 2 1 1 2 2 1 1 0 0 0 0 0 0 0 0 0 0 0 0 0 0 0 0 0 0 0 0 0 0 0 1 3 3 3 3 3 2 1 0
0 0 0 1 1 1 0 0 0 0 0 0 0 0 0 0 0 0 0 0 0 0 0 0 0 0 0 0 0 0 0 0 0 0 0 1 2 3 3 3 3 2 1 0
0 0 0 0 0 0 0 0 0 0 0 0 0 0 0 0 0 0 0 0 0 0 0 0 0 0 0 0 0 0 0 0 0 0 0 0 1 3 3 3 2 1 0 0
0 0 0 0 0 0 0 0 0 0 0 0 0 0 0 0 0 0 0 0 0 0 0 0 0 0 0 0 0 0 0 0 0 0 0 0 1 3 3 2 1 0 0 0
0 0 0 0 0 0 0 0 0 0 0 0 0 0 0 0 0 0 0 0 0 0 0 0 0 0 0 0 0 0 0 0 0 0 0 1 2 3 3 1 0 0 0 0
Wind_Speed
3 4 2 2 3 2 1 4 6 6 6 6 7 7 7 7 7 6 5 5 6 6 4 3 3 3 3 2 2 3 3 3 3 3 2 2 2 2 2 2 2 2 1 1
3 2 3 3 4 3 2 2 2 2 2 3 3 5 5 6 8 7 6 5 5 5 4 4 4 3 3 3 2 3 3 3 3 3 2 2 2 2 2 1 2 1 2 2
2 4 4 4 3 1 1 1 4 4 4 2 4 6 7 7 7 7 6 5 5 5 4 3 3 3 3 2 2 2 2 2 2 2 2 2 2 2 2 3 2 2 2 2
0 3 3 6 2 2 2 0 2 3 4 6 6 5 4 5 7 6 5 5 4 3 3 2 2 2 2 2 2 2 2 2 2 3 2 2 1 2 3 3 2 2 2 2
2 1 4 5 3 1 0 1 0 3 4 4 6 5 3 1 5 6 5 4 4 4 4 3 2 2 2 1 1 1 2 2 2 3 3 3 3 3 3 2 2 3 3 3
3 2 4 6 5 3 2 1 2 3 5 5 5 4 3 3 3 4 4 4 4 4 3 3 2 3 3 2 2 1 2 2 2 2 3 3 3 3 2 2 2 2 2 3
3 3 4 5 5 3 2 5 3 3 4 5 4 5 5 5 4 4 4 5 5 5 3 2 2 4 4 2 1 1 0 0 1 1 2 3 3 2 2 1 1 1 2 2
2 2 6 5 1 2 5 3 1 2 3 3 4 4 5 6 6 5 4 4 4 4 3 2 2 4 3 1 1 0 1 1 0 1 1 1 2 1 1 1 1 1 1 1
5 6 5 2 3 4 4 3 2 2 2 4 5 5 5 5 6 5 5 4 3 4 2 1 1 3 3 2 1 1 1 1 1 0 0 1 1 2 1 1 1 1 1 1
1 3 3 2 1 1 1 3 3 3 4 5 5 6 6 6 5 5 4 3 3 4 3 1 1 1 2 2 2 2 1 0 0 0 1 1 1 1 1 2 1 1 2 2
1 2 2 3 1 1 0 1 1 2 3 5 7 6 6 5 5 5 4 3 3 4 3 3 2 1 1 1 2 1 1 1 1 0 1 1 1 1 2 2 4 4 3 3
5 5 3 5 4 2 2 1 2 2 2 3 5 6 5 5 5 5 5 4 3 3 3 3 2 1 1 1 2 2 1 1 1 1 1 1 1 1 2 2 3 5 5 5
5 4 4 4 1 1 2 2 2 2 3 4 4 5 5 5 4 5 4 4 4 4 4 3 2 2 2 1 2 2 2 2 1 1 1 1 1 1 1 3 3 3 3 4
2 1 0 1 1 1 1 2 2 2 2 3 4 4 5 4 4 5 5 5 4 3 3 2 2 1 1 1 1 1 2 2 2 2 2 2 2 2 2 2 2 3 3 3
3 2 4 3 1 1 1 2 2 1 2 2 3 4 4 5 5 4 4 4 4 3 2 2 2 1 1 1 1 1 1 1 2 1 1 2 2 2 2 2 2 2 1 2
2 1 1 1 1 1 1 1 2 1 2 2 3 4 4 4 4 3 3 3 4 3 3 3 2 2 1 1 1 1 2 3 2 2 1 1 1 1 1 1 1 2 2 2
1 0 0 1 0 0 1 2 2 2 2 2 3 4 4 4 4 3 2 2 3 4 4 3 3 2 2 2 2 1 1 2 2 1 2 2 2 2 2 2 2 2 2 3
2 2 2 2 2 1 1 1 2 1 2 2 2 3 3 4 4 4 3 2 1 1 2 3 3 3 2 2 1 1 1 1 1 2 2 2 2 2 2 2 2 2 2 2
0 1 1 2 1 1 1 1 1 1 1 2 2 2 3 3 4 4 3 3 2 2 3 3 3 2 2 3 2 1 1 1 1 2 2 2 2 2 1 2 2 2 2 1
1 1 1 1 1 1 1 1 1 1 1 2 1 1 1 2 3 3 3 3 3 4 4 3 3 2 2 3 2 2 2 2 2 2 1 1 2 2 1 1 1 1 1 1
1 1 1 1 1 0 1 1 2 2 1 2 2 2 2 2 2 3 3 2 3 3 3 3 3 2 3 3 3 2 2 2 2 1 1 1 2 2 2 1 1 1 1 1
1 1 0 0 1 0 0 1 2 2 1 1 2 2 2 2 2 1 2 3 3 4 3 2 2 4 4 3 2 2 2 2 2 1 1 1 2 2 2 2 2 1 1 1
1 0 0 0 1 1 0 1 1 1 2 2 2 3 3 3 3 3 3 3 2 4 3 3 3 5 5 2 2 2 2 2 2 2 2 2 2 2 2 2 2 2 1 1
0 0 1 1 1 1 0 1 1 1 2 2 3 4 3 2 1 2 3 4 5 5 3 3 4 4 4 2 2 2 2 2 2 2 2 1 1 2 2 2 2 1 1 1
0 1 0 1 1 1 2 2 1 1 1 1 2 2 2 3 3 3 2 3 5 5 3 4 5 5 3 2 2 2 2 2 2 2 2 1 1 1 2 2 2 2 2 2
1 1 1 1 1 1 1 1 1 2 2 1 1 2 1 1 2 2 2 2 3 4 3 2 3 3 3 3 3 3 2 2 2 2 2 3 2 2 2 2 2 2 2 2
1 1 0 0 1 1 1 1 2 2 2 3 2 2 2 2 2 2 2 2 2 2 2 2 2 3 3 3 3 3 3 3 2 2 2 2 2 2 2 2 2 2 2 2
Wind_Direction
240 245 268 294 308 325 218 200 190 218 208 217 198 184 175 162 155 153 150 148 149 150 155 151 157 163 159 157 163 163 166 182 198 201 192 189 188 189 197 206 215 223 229 250
318 320 341 325 318 303 288 256 186 171 247 246 172 141 148 153 150 153 155 159 151 146 146 158 163 167 164 170 178 167 175 196 201 188 186 194 204 202 195 212 226 210 223 233
289 313 15 313 292 308 277 275 153 185 231 175 136 147 159 160 154 153 159 163 155 157 158 166 175 168 174 182 166 160 173 186 187 185 200 221 216 201 204 209 210 208 222 223
202 23 241 246 281 83 99 265 157 162 168 152 153 156 144 144 146 151 162 163 151 149 147 159 156 148 154 147 148 160 183 199 187 183 200 218 217 238 231 212 206 215 224 227
121 185 273 295 311 354 105 308 311 141 135 125 117 87 51 119 146 159 164 156 153 154 148 141 140 142 126 108 125 159 194 214 209 192 191 204 222 242 236 209 218 219 213 213
135 166 233 258 290 307 88 288 308 126 136 145 115 122 222 198 155 143 137 139 141 133 118 122 126 115 106 98 91 179 228 228 217 185 185 203 219 232 243 214 221 224 227 219
159 195 253 270 300 11 137 239 268 149 150 155 162 184 187 162 147 147 140 142 138 128 130 151 139 112 108 109 138 240 203 170 207 202 198 206 212 225 226 214 218 234 240 242
152 187 252 277 359 156 214 223 169 139 146 143 148 144 147 149 147 143 136 138 140 135 139 153 140 123 120 145 225 83 78 69 353 271 232 190 192 212 191 168 188 231 241 278
183 213 240 244 209 214 171 156 165 165 164 146 142 146 151 152 150 150 151 150 144 136 138 165 169 146 149 191 175 101 79 55 342 322 304 216 191 190 178 173 186 228 233 246
214 263 272 298 351 343 140 164 181 170 151 140 146 154 154 153 151 150 152 158 147 139 149 189 210 172 174 179 156 119 119 199 318 41 340 305 226 194 178 188 196 219 223 236
261 288 335 318 297 248 185 111 131 153 152 156 150 157 158 156 157 159 156 161 153 156 168 179 176 193 218 173 155 153 172 199 232 224 230 278 268 227 203 214 202 205 220 218
235 233 212 255 262 220 156 154 154 141 152 165 158 164 160 157 159 157 157 161 158 164 173 181 173 196 223 185 162 160 175 214 218 221 241 245 219 320 328 277 256 233 223 217
224 229 210 235 264 173 146 152 137 148 164 169 172 166 154 150 156 153 151 155 166 178 185 184 177 197 216 173 159 178 200 214 224 224 221 235 220 198 293 323 328 313 271 243
232 189 274 266 234 236 146 145 128 129 152 159 159 148 141 139 141 149 162 173 171 165 171 170 164 212 234 169 152 188 205 212 212 217 215 219 226 222 212 229 290 309 301 273
267 222 210 222 222 194 146 134 122 131 125 135 143 142 144 148 158 171 177 167 146 138 157 160 166 238 246 167 168 187 205 239 232 226 226 227 227 222 219 231 241 266 303 311
267 272 185 181 215 226 196 158 144 151 141 149 155 160 163 163 161 156 157 151 145 162 175 170 191 231 212 183 188 208 224 250 245 227 242 245 236 224 217 214 232 242 250 263
113 1 321 307 328 325 173 156 160 169 156 155 169 168 155 142 135 140 154 167 171 184 188 186 203 210 191 189 191 225 248 270 272 251 238 238 239 236 230 221 224 239 244 234
183 189 177 169 149 131 101 90 106 120 148 161 151 137 144 153 164 177 181 169 153 183 218 214 204 193 194 199 198 217 230 248 251 239 236 238 239 230 221 224 232 238 261 255
170 157 152 142 145 158 183 153 129 144 146 125 133 159 170 171 175 176 163 146 157 199 239 227 201 193 213 223 217 213 228 260 269 254 236 234 247 254 240 234 242 242 248 251
103 114 129 122 92 125 184 193 165 150 150 129 114 129 180 195 180 169 161 180 203 209 212 202 184 197 224 236 230 217 227 243 249 247 232 231 241 251 257 253 238 241 249 242
66 63 88 116 107 122 162 191 165 164 176 159 163 177 193 207 192 171 166 215 251 223 202 197 192 203 214 222 230 226 233 233 230 224 216 215 231 238 239 239 246 245 250 249
18 12 12 17 94 101 160 187 172 167 160 161 181 181 176 189 192 194 207 216 234 217 202 201 208 211 212 219 217 221 230 238 237 225 206 201 214 227 230 226 227 230 237 233
27 21 331 252 190 187 205 168 170 166 178 188 185 178 187 204 196 186 230 245 221 210 210 222 224 220 221 222 226 222 224 227 223 222 219 219 218 217 217 214 217 213 220 229
302 272 279 258 121 104 170 263 243 226 217 213 208 198 188 192 240 235 222 219 212 209 214 220 221 232 231 231 224 219 220 227 228 226 225 227 226 221 213 208 214 215 215 220
291 275 297 91 121 220 234 242 249 228 224 237 222 211 196 185 198 228 227 219 216 208 214 214 212 220 221 225 223 220 220 216 211 213 220 217 215 215 216 217 211 202 196 197
273 248 247 226 210 225 226 201 213 231 220 219 235 235 210 186 187 200 214 221 218 211 209 208 210 211 215 217 214 215 223 217 211 213 211 210 205 197 192 202 204 194 191 186
296 304 335 358 324 243 214 213 230 238 220 198 215 232 213 195 191 209 224 227 226 225 219 212 212 215 214 213 211 210 216 216 208 207 205 205 201 198 194 190 188 179 175 167